#timestamp,LO_Frequency,Hit,StdDev 
1513558815.2,286047002.8,P
1513558835.0,286047002.6,N
1513558835.9,286047002.6,N
1513558855.8,286047003.4,N
1513558875.6,286047006.9,Y
1513558895.5,286047003.7,P
1513558915.3,286047004.1,P
1513558935.1,286047000.0,N
1513558955.9,286047002.8,N
1513558975.7,286047004.3,N
1513558995.6,286047002.8,N
1513559015.4,286047001.5,N
1513559035.2,286047004.0,N
1513559055.1,286047000.0,N
1513559056.0,286047000.0,N
1513559075.8,286047000.6,N
1513559095.6,286047000.8,N
1513559115.5,286047002.4,N
1513559135.3,286046997.0,N
1513559155.2,286046996.5,N
1513559175.9,286046997.9,N
1513559195.7,286046997.3,N
1513559215.6,286046997.2,N
1513559235.4,286046999.8,N
1513559255.3,286046996.5,N
1513559275.1,286046998.2,N
1513559276.0,286046998.2,N
1513559295.8,286046998.3,N
1513559315.7,286047000.9,N
1513559335.5,286046995.5,N
1513559355.3,286046997.1,N
1513559375.2,286046998.0,N
1513559395.0,286046996.1,N
1513559395.9,286046996.1,N
1513559415.8,286046995.9,N
1513559435.6,286046994.5,N
1513559455.4,286046996.3,N
1513559475.3,286046998.4,N
1513559495.1,286046998.7,N
1513559515.9,286046995.0,N
1513559535.7,286046996.3,N
1513559555.5,286046996.3,N
1513559575.4,286047000.3,N
1513559595.2,286047000.5,N
1513559615.0,286046998.1,N
1513559616.0,286046998.1,N
1513559635.8,286047001.0,N
1513559655.6,286046999.2,N
1513559675.5,286046995.1,N
1513559695.3,286046997.0,N
1513559715.1,286046998.5,N
1513559735.9,286047000.7,N
1513559755.7,286046999.3,N
1513559775.6,286047001.1,N
1513559795.4,286046997.4,N
1513559815.2,286047000.4,N
1513559835.1,286046998.1,N
1513559836.0,286046998.1,N
1513559855.8,286046995.8,N
1513559875.7,286046995.4,N
1513559895.5,286046998.4,N
1513559915.3,286046998.1,N
1513559935.2,286046998.5,N
1513559955.0,286047000.8,N
1513559955.9,286047000.8,N
1513559975.8,286046997.2,N
1513559995.6,286046998.6,N
1513560015.4,286046998.9,N
1513560035.3,286046998.1,N
1513560055.1,286046996.8,N
1513560075.8,286046997.6,N
1513560095.7,286046997.9,N
1513560115.5,286046998.1,N
1513560135.4,286046999.4,N
1513560155.2,286046998.7,N
1513560175.0,286046998.3,N
1513560175.9,286046998.3,N
1513560195.8,286047000.0,N
1513560215.6,286046999.8,N
1513560235.5,286047002.3,N
1513560255.3,286047003.2,N
1513560275.1,286047007.4,Y
1513560295.9,286047006.7,P
1513560315.7,286047010.2,N
1513560335.6,286047006.5,N
1513560355.4,286047008.7,N
1513560375.2,286047006.7,N
1513560395.1,286047003.5,N
1513560396.0,286047003.5,N
1513560415.8,286047005.6,N
1513560435.6,286047003.1,N
1513560455.5,286047003.0,N
1513560475.3,286047005.2,N
1513560495.2,286047007.7,N
1513560515.9,286047012.3,Y
1513560535.7,286047003.5,P
1513560555.6,286047001.3,N
1513560575.4,286047004.2,N
1513560595.3,286047003.0,N
1513560615.1,286047003.4,N
1513560616.0,286047003.4,N
1513560635.8,286046998.4,N
1513560655.7,286046998.9,N
1513560675.5,286046998.3,N
1513560695.4,286046997.9,N
1513560715.2,286046996.6,N
1513560735.0,286047000.5,N
1513560735.9,286047000.5,N
1513560755.8,286046997.1,N
1513560775.6,286047000.6,N
1513560795.4,286046998.4,N
1513560815.3,286047000.1,N
1513560835.1,286047001.4,N
1513560855.9,286047004.3,N
1513560875.7,286047005.8,N
1513560895.5,286047003.5,N
1513560915.4,286047003.0,N
1513560935.2,286047002.0,N
1513560955.1,286047001.1,N
1513560956.0,286047001.1,N
1513560975.8,286047003.5,N
1513560995.6,286047004.2,N
1513561015.5,286047002.0,N
1513561035.3,286047003.1,N
1513561055.2,286047002.5,N
1513561075.9,286047004.0,N
1513561095.7,286047002.5,N
1513561115.6,286046999.7,N
1513561135.4,286047004.0,N
1513561155.2,286047004.9,N
1513561175.1,286047003.7,N
1513561176.0,286047003.7,N
1513561195.8,286047000.5,N
1513561215.7,286046998.5,N
1513561235.5,286047000.9,N
1513561255.3,286047001.3,N
1513561275.2,286047003.0,N
1513561295.0,286046999.7,N
1513561295.9,286046999.7,N
1513561315.8,286047002.0,N
1513561335.6,286046998.4,N
1513561355.4,286047000.1,N
1513561375.3,286047005.7,Y
1513561395.1,286047004.3,P
1513561415.9,286047005.3,P
1513561435.7,286047003.0,N
1513561455.5,286047004.3,Y
1513561475.4,286046997.3,P
1513561495.2,286046996.6,N
1513561515.0,286047000.1,N
1513561515.9,286047000.1,N
1513561535.8,286046999.7,N
1513561555.6,286047000.5,N
1513561575.5,286046998.9,N
1513561595.3,286046998.1,N
1513561615.1,286046999.5,N
1513561635.9,286046993.3,Y
1513561655.7,286046996.4,P
1513561675.6,286046995.2,P
1513561695.4,286046995.0,N
1513561715.2,286046997.6,N
1513561735.1,286046995.2,N
1513561736.0,286046995.2,Y
1513561755.8,286047000.0,P
1513561775.7,286047003.8,N
1513561795.5,286046998.1,N
1513561815.3,286046997.3,N
1513561835.2,286047000.5,N
1513561855.0,286047001.5,N
1513561855.9,286047001.5,N
1513561875.8,286047003.6,N
1513561895.6,286047003.4,N
1513561915.4,286047003.0,N
1513561935.3,286047003.9,N
1513561955.1,286047005.8,N
1513561975.8,286047001.9,N
1513561995.7,286047005.5,N
1513562015.5,286047003.4,N
1513562035.4,286047004.0,N
1513562055.2,286047003.1,N
1513562075.0,286047003.6,N
1513562075.9,286047003.6,N
1513562095.8,286047005.3,N
1513562115.6,286047005.3,N
1513562135.4,286047007.4,N
1513562155.3,286047004.8,N
1513562175.1,286047005.7,N
1513562195.9,286047003.2,N
1513562215.7,286047001.3,N
1513562235.5,286047004.1,N
1513562255.4,286047005.2,N
1513562275.2,286047006.4,N
1513562295.1,286047004.8,N
1513562296.0,286047004.8,N
1513562315.8,286046999.9,N
1513562335.6,286047000.1,N
1513562355.5,286047002.9,N
1513562375.3,286047005.7,Y
1513562395.2,286047004.1,P
